YAOGAN-31 E

Satellite information

Favourite Embed

Satellite Type and Status

PAYLOADIN ORBIT

Key statistics

Satellite YAOGAN-31 E at a glance.

Uptime

1740

Days in orbit

Revolutions

≈ 13.5

Per day

Orbit

LEO

Low Earth Orbit

Inclination

63.4

Latest

Satellite identification and parameters

Extended collection of information and parameters for YAOGAN-31 E.

Object identification

Identified? True

Debris? False

Object name: YAOGAN-31 E

International designator: 2021-007B

Object number (NORAD): 47533

Object ID (CCSDS): 47533

Country: PEOPLES REPUBLIC OF CHINA (PRC)

Current information (Y/N): Y

RCS size: LARGE

Orbital parameters

Period: 107.03 minutes

Inclination: 63.4065 deg

SMA: 7467.283 km

Apoapsis: 1205.661 km

Periapsis: 972.635 km

RAAN: 1.2118 deg

Eccentricy: 0.0156031

Argument of periapsis: 359.7567 deg

Mean anomaly: 0.3358 deg

Mean motion: 13.45423017 rev/day

Mean motion (dot): -0.00000019 rev/day2

B* drag term: 0.00011153 1/REarth

Two-line elements (TLE)

Creation date: Nov. 3, 2025, 11:16 p.m.

Reference frame: TEME

Reference center: EARTH

Epoch: Nov. 3, 2025, 8:08 p.m. UTC

TLE line 0: 0 YAOGAN-31 E

TLE line 1: 1 47533U 21007B 25307.83913308 -.00000019 00000-0 11153-3 0 9999

TLE line 2: 2 47533 63.4065 1.2118 0156031 359.7567 0.3358 13.45423017233916

Live tracking on map

Real-time ground track for satellite YAOGAN-31 E.

In-orbit conjunctions

There are no conjunctions computed for YAOGAN-31 E, at the moment. Check back to stay up to date, as we update our databases every day.

Go to all conjunctions

Associated space launch

YAOGAN-31 E was lifted into orbit during the mission ‘Long March 4C | Yaogan-31-02’, on board a Long March 4C space rocket.

The launch took place on Jan. 29, 2021, 4:47 a.m. from Launch Area 4 (SLS-2 / 603).

For more information about the launch, click the button.

Launch to space Long March 4C | Yaogan-31-02
Long March 4C | Yaogan-31-02

Agency: N/A

Status: Launch Successful

Launch date: Jan. 29, 2021, 4:47 a.m. UTC

Rocket: Long March 4C

Launch pad: Launch Area 4 (SLS-2 / 603)

Location: Jiuquan Satellite Launch Center, People's Republic of China

...

Latest news about this satellite

News about space launch
Long March 4C lofts three Yaogan Weixing-31 satellites

China launched its second orbital mission in 2021, orbiting three new satellites from the Jiuquan Satellite Launch Center on Friday. The launch took place from Launch Pad 94 of the LC43 launch complex using the Long March-4C (Y31) rocket. The Yaogan Weix...

News about space launch
China launches military spy satellite trio into orbit

China launched three Yaogan military satellites Friday on a Long March 4C rocket, adding to a fleet of spacecraft independent analysts believe are designed to spy on naval forces.


Newsletter sign-up

Weekly statistics, charts and insights to help you stay on top of the space industry.